Location: *
(46.4000°N, 12.6667°E)
Time: 03:41:29
(UTC+00:00)

Envisat - Pass Details

Date: 08 December 2021
Orbit: 764 x 766 km, 98.2° (Epoch: 16 January)

Event Time Altitude Azimuth Distance (km) Brightness Sun altitude
Rises 03:03:13 0° 27° (NNE) 3,243 6.6 -36.4°
Reaches altitude 10° 03:06:08 10° 44° (NE) 2,311 5.9 -35.9°
Maximum altitude 03:09:52 20° 91° (E) 1,706 5.4 -35.2°
Drops below altitude 10° 03:13:34 10° 138° (SE) 2,297 5.9 -34.6°
Sets 03:16:26 0° 155° (SSE) 3,217 6.5 -34.1°
